カタログに戻る

STARLINK-32457

運用中通信VLEO
NORAD 61717·PAYLOAD·🇺🇸 United States

打ち上げ Oct 30, 2024 から Cape Canaveral Space Force Station

Loading…

次のパス (今後24時間)

TLE

最新Source: CelesTrak SupGP

元期: Sep 15, 2026, 03:25 UTC

1 61717C 24196L   26258.14284722  .00014194  00000+0  41922-3 0  2584
2 61717  53.1593 298.8567 0001044  76.6460  74.5325 15.34394357    14

AllMySatでSTARLINK-32457をリアルタイム追跡

Download on the App Store